Location: Newark
(42.8481°N, 0.4872°E)
Time: 07:38:59
(UTC+00:00)

SR - Pass Details

Date: 05 November 2020
Orbit: 579 x 876 km, 66.7° (Epoch: 29 November)

Event Time Altitude Azimuth Distance (km) Brightness Sun altitude
Rises 07:53:01 0° 337° (NNW) 3,067 ? 11.3°
Reaches altitude 10° 07:55:35 10° 349° (N) 2,198 ? 11.7°
Maximum altitude 07:59:56 29° 49° (NE) 1,373 ? 12.4°
Drops below altitude 10° 08:04:35 10° 108° (ESE) 2,360 ? 13.1°
Sets 08:07:25 0° 120° (ESE) 3,334 ? 13.5°
